Location: Skalnate Pleso
(49.1889°N, 20.2450°E)
Time: 14:37:10
(UTC+02:00)

Cosmos 1269 Rocket - Pass Details

Date: 27 February 2020
Orbit: 772 x 780 km, 74.1° (Epoch: 08 April)

Event Time Altitude Azimuth Distance (km) Brightness Sun altitude
Exits shadow 01:28:06 11° 25° (NNE) 2,278 7.0 -44.7°
Drops below altitude 10° 01:28:20 10° 25° (NNE) 2,366 7.1 -44.7°
Sets 01:30:38 0° 25° (NNE) 3,264 8.0 -44.5°
